Bryce Canyon, UT

7:35 AM MDT on September 23, 2017 (GMT -0600)
Bryce Canyon

Weather History for KBCE - January, 2013

Change the Weather History Date:

Thursday, January 10, 2013

  Actual Average Record
Temperature  
Mean Temperature 22 °F -  
Max Temperature 30 °F 35 °F 56 °F (1990)
Min Temperature 10 °F 11 °F -18 °F (2011)
Degree Days  
Heating Degree Days 42    
Moisture  
Dew Point 18 °F    
Average Humidity 82    
Maximum Humidity 100    
Minimum Humidity 69    
Precipitation  
Precipitation 0.05 in - - ()
Sea Level Pressure  
Sea Level Pressure 29.62 in    
Wind  
Wind Speed 11 mph (SSW)    
Max Wind Speed 28 mph    
Max Gust Speed 36 mph    
Visibility 5 miles    
Events Fog , Snow    
Averages and records for this station are not official NWS values.
T = Trace of Precipitation, MM = Missing Value Source: NWS Daily Summary

Daily Weather History Graph

Daily Weather History Graph

Search for Another Location

Airport or City:

Trip Planner

Search our weather history database for the weather conditions in past years. The results will help you decide how hot, cold, wet, or windy it might be!

Date:

Astronomy

Jan. 10, 2013 Rise Set
Actual Time 7:43 AM MST 5:29 PM MST
Civil Twilight 7:14 AM MST 5:57 PM MST
Nautical Twilight 6:42 AM MST 6:30 PM MST
Astronomical Twilight 6:10 AM MST 7:02 PM MST
Moon 6:27 AM MST (1/10) 4:40 PM MST (1/10)
Length of Visible Light 10h 43m
Length of Day
9h 45m
Waning Crescent, 2% of the Moon is Illuminated
Jan 10
Waning Crescent
Jan 11
New
Jan 18
First Quarter
Jan 26
Full
Feb 3
Last Quarter

Hourly Weather History & Observations

Time (MST) Temp. Windchill Dew Point Humidity Pressure Visibility Wind Dir Wind Speed Gust Speed Precip Events Conditions
12:53 AM 21.0 °F - 14.0 °F 74% 29.99 in 10.0 mi Calm Calm - N/A   Clear
1:53 AM 26.1 °F 15.6 °F 17.1 °F 69% 29.92 in 10.0 mi SSE 11.5 mph - N/A   Clear
2:53 AM 25.0 °F 14.2 °F 16.0 °F 69% 29.91 in 10.0 mi SSE 11.5 mph - N/A   Clear
3:53 AM 21.0 °F 14.6 °F 14.0 °F 74% 29.89 in 10.0 mi South 4.6 mph - N/A   Clear
4:53 AM 19.9 °F 12.1 °F 14.0 °F 78% 29.90 in 10.0 mi SSE 5.8 mph - N/A   Clear
5:53 AM 25.0 °F 14.8 °F 17.1 °F 72% 29.86 in 10.0 mi SSE 10.4 mph - N/A   Clear
6:53 AM 26.1 °F 14.0 °F 18.0 °F 71% 29.86 in 10.0 mi SSE 15.0 mph - N/A   Clear
7:53 AM 26.1 °F 16.2 °F 18.0 °F 71% 29.84 in 10.0 mi South 10.4 mph - N/A   Overcast
8:53 AM 26.1 °F 15.6 °F 19.0 °F 75% 29.83 in 10.0 mi SE 11.5 mph - N/A   Overcast
9:53 AM 25.0 °F 17.1 °F 18.0 °F 75% 29.81 in 10.0 mi SSE 6.9 mph - N/A   Partly Cloudy
10:53 AM 28.0 °F 20.8 °F 19.0 °F 69% 29.76 in 10.0 mi SSE 6.9 mph - N/A   Overcast
11:53 AM 28.0 °F 18.1 °F 19.9 °F 72% 29.73 in 10.0 mi SE 11.5 mph - N/A   Scattered Clouds
12:53 PM 28.0 °F 16.1 °F 19.0 °F 69% 29.64 in 10.0 mi SE 16.1 mph - N/A   Clear
1:53 PM 30.0 °F 18.7 °F 21.0 °F 69% 29.57 in 10.0 mi SSE 16.1 mph - N/A   Mostly Cloudy
2:49 PM 28.4 °F 15.8 °F 21.2 °F 74% 29.62 in 6.0 mi SSE 18.4 mph 24.2 mph 0.00 in Snow Light Snow
2:53 PM 28.9 °F 15.8 °F 21.0 °F 72% 29.55 in 3.0 mi SSE 20.7 mph 29.9 mph 0.00 in Snow Light Snow
3:01 PM 28.4 °F 15.4 °F 21.2 °F 74% 29.62 in 2.5 mi SSE 19.6 mph 29.9 mph 0.00 in Snow Light Snow
3:09 PM 28.4 °F 16.2 °F 19.4 °F 69% 29.61 in 5.0 mi SSE 17.3 mph - 0.00 in Snow Light Snow
3:27 PM 28.4 °F 14.7 °F 19.4 °F 69% 29.60 in 7.0 mi SSE 21.9 mph - 0.00 in Snow Light Snow
3:53 PM 28.0 °F 14.6 °F 19.0 °F 69% 29.54 in 9.0 mi SSE 20.7 mph - 0.00 in   Overcast
4:53 PM 27.0 °F 15.6 °F 18.0 °F 69% 29.53 in 10.0 mi SSE 13.8 mph - N/A   Overcast
5:53 PM 27.0 °F 15.6 °F 19.0 °F 72% 29.49 in 10.0 mi South 13.8 mph - N/A   Overcast
6:32 PM 26.6 °F 13.8 °F 23.0 °F 86% 29.54 in 2.0 mi SSW 17.3 mph - 0.00 in Snow Light Snow
6:40 PM 26.6 °F 15.2 °F 24.8 °F 93% 29.54 in 1.2 mi South 13.8 mph 25.3 mph 0.00 in Snow Light Snow
6:53 PM 26.1 °F 15.0 °F 23.0 °F 88% 29.46 in 3.0 mi SSW 12.7 mph - 0.00 in Snow Light Snow
7:03 PM 26.6 °F 16.8 °F 21.2 °F 80% 29.51 in 8.0 mi SSW 10.4 mph - 0.00 in Snow Light Snow
7:14 PM 26.6 °F 15.7 °F 21.2 °F 80% 29.52 in 2.5 mi SSW 12.7 mph - 0.00 in Snow Light Snow
7:20 PM 26.6 °F 16.8 °F 23.0 °F 86% 29.52 in 0.8 mi SW 10.4 mph - 0.00 in Snow Light Snow
7:31 PM 24.8 °F 15.3 °F 24.8 °F 100% 29.52 in 0.2 mi SW 9.2 mph 18.4 mph 0.01 in Fog , Snow Heavy Snow
7:35 PM 24.8 °F 16.1 °F 24.8 °F 100% 29.52 in 0.5 mi WSW 8.1 mph 18.4 mph 0.01 in Fog , Snow Snow
7:53 PM 23.0 °F 6.3 °F 21.0 °F 92% 29.48 in 0.8 mi WSW 26.5 mph 34.5 mph 0.02 in Snow Light Snow
8:02 PM 21.2 °F 3.5 °F 19.4 °F 93% 29.53 in 0.5 mi WSW 27.6 mph 35.7 mph 0.00 in Fog , Snow Snow
8:34 PM 19.4 °F 6.6 °F 19.4 °F 100% 29.54 in 1.0 mi WSW 12.7 mph - 0.00 in Snow Light Snow
8:40 PM 19.4 °F 6.6 °F 17.6 °F 93% 29.53 in 3.0 mi West 12.7 mph - 0.00 in Snow Light Snow
8:46 PM 19.4 °F 3.2 °F 17.6 °F 93% 29.52 in 1.8 mi West 20.7 mph 28.8 mph 0.00 in Snow Light Snow
8:53 PM 19.9 °F 5.7 °F 17.1 °F 89% 29.50 in 1.0 mi West 16.1 mph 28.8 mph 0.00 in Snow Light Snow
9:07 PM 19.4 °F 4.5 °F 17.6 °F 93% 29.52 in 0.8 mi West 17.3 mph - 0.00 in Snow Light Snow
9:10 PM 19.4 °F 6.0 °F 17.6 °F 93% 29.52 in 1.0 mi West 13.8 mph - 0.00 in Snow Light Snow
9:42 PM 17.6 °F 7.3 °F 15.8 °F 93% 29.55 in 1.0 mi WNW 8.1 mph - 0.01 in Snow Light Snow
9:53 PM 18.0 °F 7.7 °F 14.0 °F 84% 29.53 in 1.0 mi WNW 8.1 mph - 0.01 in Snow Light Snow
10:02 PM 17.6 °F 8.2 °F 14.0 °F 86% 29.54 in 0.8 mi NW 6.9 mph - 0.00 in Snow Light Snow
10:32 PM 15.8 °F 6.1 °F 14.0 °F 93% 29.55 in 1.0 mi WNW 6.9 mph - 0.01 in Snow Light Snow
10:37 PM 15.8 °F 5.1 °F 14.0 °F 93% 29.54 in 2.0 mi WNW 8.1 mph - 0.01 in Snow Light Snow
10:45 PM 15.8 °F 7.2 °F 12.2 °F 86% 29.54 in 5.0 mi NW 5.8 mph - 0.01 in Snow Light Snow
10:53 PM 16.0 °F 8.8 °F 12.9 °F 88% 29.53 in 4.0 mi NW 4.6 mph - 0.01 in Snow Light Snow
10:57 PM 15.8 °F 8.6 °F 12.2 °F 86% 29.55 in 2.5 mi NNW 4.6 mph - 0.00 in Snow Light Snow
11:10 PM 15.8 °F 10.2 °F 12.2 °F 86% 29.55 in 2.0 mi NW 3.5 mph - 0.00 in Snow Light Snow
11:20 PM 15.8 °F - 12.2 °F 86% 29.54 in 3.0 mi Calm Calm - 0.01 in Snow Light Snow
11:53 PM 10.9 °F 1.4 °F 8.1 °F 88% 29.55 in 10.0 mi West 5.8 mph - 0.01 in   Overcast